Stündliche Wetter Bolshie Kopeny

Heute, 16 Juni, Mittwoch

Zeit Temperatur Niederschläge Wind Luftdruck Luftfeuchtigkeit
00:00 +18°C° 0 mm 2 m/S 744 mmHg 88%
01:00 +18°C° 0 mm 2 m/S 744 mmHg 90%
02:00 +18°C° 0 mm 2 m/S 745 mmHg 92%
03:00 +17°C° 0 mm 3 m/S 745 mmHg 94%
04:00 +18°C° 0 mm 3 m/S 745 mmHg 92%
05:00 +19°C° 0 mm 3 m/S 745 mmHg 91%
06:00 +19°C° 0 mm 3 m/S 745 mmHg 89%
07:00 +21°C° 0 mm 4 m/S 745 mmHg 83%
08:00 +22°C° 0 mm 4 m/S 746 mmHg 78%
09:00 +23°C° 0 mm 4 m/S 746 mmHg 72%
10:00 +25°C° 0 mm 4 m/S 746 mmHg 68%
11:00 +26°C° 0 mm 5 m/S 746 mmHg 65%
12:00 +27°C° 0 mm 5 m/S 747 mmHg 61%
13:00 +27°C° 0.3 mm 5 m/S 747 mmHg 60%
14:00 +27°C° 0.3 mm 5 m/S 747 mmHg 60%
15:00 +27°C° 0.3 mm 5 m/S 747 mmHg 60%
16:00 +27°C° 0.2 mm 4 m/S 747 mmHg 64%
17:00 +26°C° 0.2 mm 4 m/S 747 mmHg 68%
18:00 +26°C° 0.2 mm 3 m/S 748 mmHg 72%
19:00 +24°C° 0 mm 3 m/S 748 mmHg 77%
20:00 +22°C° 0 mm 3 m/S 748 mmHg 82%
21:00 +20°C° 0 mm 2 m/S 748 mmHg 87%
22:00 +20°C° 0 mm 2 m/S 749 mmHg 88%
23:00 +19°C° 0 mm 2 m/S 749 mmHg 89%

Morgen, 17 Juni, Donnerstag

Zeit Temperatur Niederschläge Wind Luftdruck Luftfeuchtigkeit
00:00 +19°C° 0 mm 2 m/S 749 mmHg 90%
01:00 +19°C° 0 mm 2 m/S 749 mmHg 90%
02:00 +18°C° 0 mm 2 m/S 749 mmHg 91%
03:00 +18°C° 0 mm 2 m/S 750 mmHg 91%
04:00 +19°C° 0 mm 3 m/S 750 mmHg 90%
05:00 +19°C° 0 mm 3 m/S 750 mmHg 88%
06:00 +20°C° 0 mm 3 m/S 750 mmHg 87%
07:00 +21°C° 0 mm 4 m/S 750 mmHg 82%
08:00 +23°C° 0 mm 5 m/S 750 mmHg 76%
09:00 +25°C° 0 mm 5 m/S 751 mmHg 71%
10:00 +26°C° 0 mm 5 m/S 751 mmHg 67%
11:00 +26°C° 0 mm 6 m/S 751 mmHg 63%
12:00 +27°C° 0 mm 6 m/S 752 mmHg 60%
13:00 +27°C° 0 mm 6 m/S 752 mmHg 59%
14:00 +27°C° 0 mm 6 m/S 752 mmHg 58%
15:00 +27°C° 0 mm 6 m/S 752 mmHg 58%
16:00 +26°C° 0 mm 5 m/S 753 mmHg 60%
17:00 +25°C° 0 mm 5 m/S 753 mmHg 63%
18:00 +25°C° 0 mm 4 m/S 753 mmHg 65%
19:00 +22°C° 0 mm 4 m/S 754 mmHg 69%
20:00 +20°C° 0 mm 4 m/S 754 mmHg 73%
21:00 +18°C° 0 mm 4 m/S 754 mmHg 76%
22:00 +17°C° 0 mm 4 m/S 754 mmHg 76%
23:00 +17°C° 0 mm 4 m/S 754 mmHg 76%

übermorgen, 18 Juni, Freitag

Zeit Temperatur Niederschläge Wind Luftdruck Luftfeuchtigkeit
00:00 +15°C° 0 mm 4 m/S 754 mmHg 76%
01:00 +14°C° 0 mm 4 m/S 755 mmHg 79%
02:00 +14°C° 0 mm 3 m/S 755 mmHg 81%
03:00 +13°C° 0 mm 3 m/S 755 mmHg 84%
04:00 +14°C° 0 mm 3 m/S 756 mmHg 82%
05:00 +16°C° 0 mm 3 m/S 756 mmHg 79%
06:00 +16°C° 0 mm 3 m/S 756 mmHg 77%
07:00 +18°C° 0 mm 4 m/S 756 mmHg 72%
08:00 +20°C° 0 mm 4 m/S 757 mmHg 67%
09:00 +21°C° 0 mm 5 m/S 757 mmHg 61%
10:00 +22°C° 0 mm 5 m/S 757 mmHg 58%
11:00 +23°C° 0 mm 5 m/S 757 mmHg 55%
12:00 +23°C° 0 mm 5 m/S 757 mmHg 52%
13:00 +25°C° 0 mm 5 m/S 757 mmHg 51%
14:00 +25°C° 0 mm 5 m/S 757 mmHg 51%
15:00 +25°C° 0 mm 5 m/S 757 mmHg 50%
16:00 +25°C° 0 mm 4 m/S 757 mmHg 54%
17:00 +23°C° 0 mm 4 m/S 757 mmHg 58%
18:00 +23°C° 0 mm 4 m/S 757 mmHg 62%
19:00 +21°C° 0 mm 4 m/S 758 mmHg 67%
20:00 +19°C° 0 mm 4 m/S 758 mmHg 72%
21:00 +17°C° 0 mm 4 m/S 758 mmHg 77%
22:00 +17°C° 0 mm 3 m/S 759 mmHg 77%
23:00 +16°C° 0 mm 3 m/S 759 mmHg 77%

19 Juni, Samstag

Zeit Temperatur Niederschläge Wind Luftdruck Luftfeuchtigkeit
00:00 +14°C° 0 mm 3 m/S 759 mmHg 77%
01:00 +13°C° 0 mm 3 m/S 759 mmHg 76%
02:00 +14°C° 0 mm 2 m/S 760 mmHg 76%
03:00 +13°C° 0 mm 2 m/S 760 mmHg 75%
04:00 +14°C° 0 mm 2 m/S 760 mmHg 75%
05:00 +15°C° 0 mm 2 m/S 760 mmHg 74%
06:00 +16°C° 0 mm 2 m/S 761 mmHg 74%
07:00 +17°C° 0 mm 3 m/S 761 mmHg 68%
08:00 +19°C° 0 mm 3 m/S 761 mmHg 62%
09:00 +20°C° 0 mm 4 m/S 761 mmHg 56%
10:00 +21°C° 0 mm 4 m/S 761 mmHg 54%
11:00 +22°C° 0 mm 4 m/S 760 mmHg 52%
12:00 +23°C° 0 mm 4 m/S 760 mmHg 50%
13:00 +23°C° 0 mm 4 m/S 760 mmHg 49%
14:00 +25°C° 0 mm 3 m/S 760 mmHg 49%
15:00 +25°C° 0 mm 3 m/S 760 mmHg 49%
16:00 +25°C° 0 mm 3 m/S 759 mmHg 53%
17:00 +25°C° 0 mm 2 m/S 759 mmHg 57%
18:00 +24°C° 0 mm 2 m/S 759 mmHg 61%
19:00 +23°C° 0 mm 2 m/S 759 mmHg 64%
20:00 +21°C° 0 mm 1 m/S 759 mmHg 67%
21:00 +19°C° 0 mm 1 m/S 759 mmHg 70%
22:00 +19°C° 0 mm 1 m/S 759 mmHg 70%
23:00 +18°C° 0 mm 1 m/S 759 mmHg 71%

20 Juni, Sonntag

Zeit Temperatur Niederschläge Wind Luftdruck Luftfeuchtigkeit
00:00 +18°C° 0 mm 1 m/S 759 mmHg 72%
01:00 +18°C° 0 mm 1 m/S 759 mmHg 74%
02:00 +16°C° 0 mm 1 m/S 759 mmHg 75%
03:00 +16°C° 0 mm 1 m/S 759 mmHg 77%
04:00 +18°C° 0 mm 1 m/S 759 mmHg 77%
05:00 +19°C° 0 mm 1 m/S 759 mmHg 76%
06:00 +20°C° 0 mm 1 m/S 759 mmHg 76%
07:00 +21°C° 0 mm 2 m/S 759 mmHg 71%
08:00 +24°C° 0 mm 2 m/S 759 mmHg 66%
09:00 +26°C° 0 mm 2 m/S 759 mmHg 61%
10:00 +26°C° 0 mm 2 m/S 758 mmHg 57%
11:00 +27°C° 0 mm 2 m/S 758 mmHg 54%
12:00 +28°C° 0 mm 2 m/S 758 mmHg 50%
13:00 +29°C° 0 mm 2 m/S 758 mmHg 49%
14:00 +29°C° 0 mm 2 m/S 757 mmHg 48%
15:00 +29°C° 0 mm 2 m/S 757 mmHg 47%
16:00 +29°C° 0 mm 2 m/S 757 mmHg 52%
17:00 +28°C° 0 mm 2 m/S 757 mmHg 57%
18:00 +28°C° 0 mm 2 m/S 756 mmHg 61%
19:00 +26°C° 0 mm 2 m/S 756 mmHg 64%
20:00 +24°C° 0 mm 1 m/S 756 mmHg 67%
21:00 +23°C° 0 mm 1 m/S 756 mmHg 70%
22:00 +22°C° 0 mm 1 m/S 756 mmHg 72%
23:00 +22°C° 0 mm 1 m/S 756 mmHg 73%

21 Juni, Montag

Zeit Temperatur Niederschläge Wind Luftdruck Luftfeuchtigkeit
00:00 +21°C° 0 mm 1 m/S 756 mmHg 74%
01:00 +21°C° 0 mm 1 m/S 756 mmHg 76%
02:00 +21°C° 0 mm 1 m/S 756 mmHg 78%
03:00 +21°C° 0 mm 1 m/S 756 mmHg 80%
04:00 +22°C° 0 mm 1 m/S 756 mmHg 79%
05:00 +22°C° 0 mm 1 m/S 756 mmHg 77%
06:00 +23°C° 0 mm 1 m/S 756 mmHg 76%
07:00 +25°C° 0 mm 2 m/S 756 mmHg 71%
08:00 +27°C° 0 mm 2 m/S 756 mmHg 66%
09:00 +28°C° 0 mm 3 m/S 756 mmHg 61%
10:00 +29°C° 0 mm 3 m/S 756 mmHg 57%
11:00 +30°C° 0 mm 2 m/S 755 mmHg 53%
12:00 +31°C° 0 mm 2 m/S 755 mmHg 50%
13:00 +31°C° 0 mm 2 m/S 755 mmHg 48%
14:00 +31°C° 0 mm 2 m/S 755 mmHg 47%
15:00 +31°C° 0 mm 2 m/S 754 mmHg 45%
16:00 +31°C° 0 mm 2 m/S 754 mmHg 49%
17:00 +30°C° 0 mm 2 m/S 754 mmHg 53%
18:00 +30°C° 0 mm 2 m/S 754 mmHg 58%
19:00 +28°C° 0 mm 2 m/S 754 mmHg 60%
20:00 +26°C° 0 mm 1 m/S 754 mmHg 62%
21:00 +25°C° 0 mm 1 m/S 754 mmHg 65%
22:00 +24°C° 0 mm 1 m/S 753 mmHg 66%
23:00 +24°C° 0 mm 1 m/S 753 mmHg 67%
Mehr zeigen

Wir brauchen deine Erlaubnis

Meteoprog und unser Service Anbieter werden persönliche Daten aufbewahren, so wie Cookies, Geräte Bezeichnung oder ähnliche Technologien von deinem Gerät und Prozess, so wie Persönliche Daten Inhalte und Werbungen, genauso wie social Media und den Verkehr zu analysieren.

  • Aufbewahrung und/oder Zugang zu deiner Geräte Informationen.

    Cookies, Geräte Bezeichnung oder andere Informationen, können aufbewahrt oder Zugang zu deinem Gerät erhalten, für den Grund, der oben angegeben wird.

  • Personalisierte Werbung und Inhalte, Messungen, Einblick in das Publikum und Produkt Entwicklung.

    Werbungen und Inhalte können personalisiert werden, basierend auf ein Profil. Mehr Daten können besser personalisierte Werbungen und Inhalte hinzufügen. Werbung und Inhalte können gezeigt und gemessen werden. Einblicke über das Publikum, welche die Werbung gesehen haben und den Inhalt, können abgeleitet werden. So wie Daten können genutzt werden, um es zu verbessern oder die Benutzer Erfahrung zu verbessern das System und die Software.

Wenn du “Ich stimme zu” klickst, erlaubst du uns, die Cookies zu benutzen die Geräte Bezeichnung, den Web oder ähnliche Technologien zu benutzen. Deine Settings, können in deinem Gerät bei deinem Browser geändert werden.

Für den bestimmten Zweck, berechtigten Interessen beruhen darauf, mehr als auf den Inhalt. Du kannst mehr darüber in unseren Privaten und Cookie Politik lesen.